STARLINK-4592, 53634

Orbit data source: Space-Track

STARLINK-4592, 53634 is a payload satellite owned by SpaceX/Seattle (US) in LEO that was launched on Sun, 28 Aug 2022 UTC via an FALCON 9 launch vehicle from the Air Force Eastern Test Range (AFETR). Payload-class satellites include a variety of spacecraft equipped with specific instruments for various scientific and technological missions. These include communications satellites like Starlink; space stations such as the ISS; scientific satellites like the Hubble; Earth observation satellites from companies like Planet Labs, Umbra, and HawkEye 360; GPS; miniature CubeSats for education and research; and military/defense satellites.

Loading next visibility...
Identifier
53634, 2022-104AY
Orbit
LEO
Country
Flag of USUS
Related business
Manufacturer
SpaceX/Seattle
Mission
Operational Commercial Communications
Bus & Motor
STARLINK, Unknown motor
Mass
300 kg wet, ~290 kg dry
Launch date (UTC)
2022-08-28 (3 years ago)
Launch vehicle
FALCON 9
Launch site
Air Force Eastern Test Range (AFETR)
Object type
Payload
Rocket body
Debris
Shape & HBR
Box + 1 Pan, 10.1 m
Radar Cross Section
13.562 m², Large (>1 m²)

Expand to show TLE details & history
Last TLE update: 8 hours ago

TLE from 8 hours ago
0 STARLINK-4592
1 53634U 22104AY  26037.00730148  .00000868  00000-0  72634-4 0  9999
2 53634  53.2196   6.2562 0001257  94.7713 265.3423 15.08842082191448
Epoch: 2026-02-06T00:10Z
TLE epoch observation values (Epoch: 2026-02-06T00:10:30.847Z)
Latitude
-0.00002°
Longitude
-132.52371°
Altitude
540.705 km
Speed
7.593 km/s
True Right ascension
00h 25m 01s
True Declination
0° 00' 00"
Sunlit
Object was in daylight at epoch
Visualization orbit readout
Latitude
Unknown
Longitude
Unknown
Altitude
Unknown
Speed
Unknown
Apparent Right ascension
Unknown
Apparent Declination
Unknown
Sunlit
N/A
Visualization observer readout
Local Sidereal Time
10:35:28
Azimuth
Unknown
Elevation
Unknown
Doppler factor
Unknown
Orbital elements
Apogee altitude
540.851 km
Perigee altitude
539.112 km
Semi-major axis
6,918.119 km
Eccentricity
0.00013
Inclination
53.2196°
RAAN
6.2562°
Arg. of periapsis
94.7713°
True anomaly
265.32794°
Mean anomaly
265.3423°
Eccentric anomaly
265.33512°
Mean motion
3.77191 °/min
Orbital period
95.44 mins
BSTAR
0.000072634
Loading maneuver chart data...
Computing Atmospheric mass density...
Loading historical data...
Loading historical data...
Loading historical data...
Loading historical data...
Loading historical data...
Loading historical data...
Loading historical data...

Documentation

Showing up to 5 results
|